Location: Cerbedi�res
(48.2182°N, 1.4849°W)
Time: 00:06:08
(UTC+00:00)

Cosmos 1066 Rocket - Pass Details

Date: 03 March 2021
Orbit: 799 x 894 km, 81.2° (Epoch: 20 April)

Event Time Altitude Azimuth Distance (km) Brightness Sun altitude
Rises 19:34:44 0° 351° (N) 3,436 7.6 -17.6°
Reaches altitude 10° 19:37:14 10° 357° (N) 2,510 6.8 -18.0°
Maximum altitude 19:42:48 52° 73° (ENE) 1,079 4.4 -18.9°
Enters shadow 19:45:37 29° 136° (SE) 1,578 5.1 -19.4°
